Home   Weather   Seattle   Past weeks

Flag for USA Past Weather in Seattle, Washington, USA — Yesterday and Last 2 Weeks

52 °F


Feels Like: 52 °F
Forecast: 54 / 60 °F
Wind: No wind

Location: Seattle Boeing Field

Current Time: Oct 24, 2016 at 11:49:34 PM

Latest Report: Oct 24, 2016 at 10:53 PM

Visibility: 10 mi

Pressure: 29.76 "Hg

Humidity: 97%

Dew Point: 51 °F

Location of SeattleLocation

Past Weather in Seattle — Graph


Seattle Temperature Yesterday

Maximum temperature yesterday: 62 °F (at 12:53 PM)
Minimum temperature yesterday: 50 °F (at 5:53 AM)
Average temperature yesterday: 56 °F

High & Low Weather Summary for the Past Weeks

High66 °F (Oct 12, 2:53 PM)100% (Oct 10, 2:53 AM)30.33 "Hg (Oct 10, 2:53 AM)
Low40 °F (Oct 12, 7:53 AM)37% (Oct 12, 2:53 PM)29.10 "Hg (Oct 15, 4:53 PM)
Average54 °F83%29.82 "Hg
* Reported Oct 9 10:53 PM — Oct 24 10:53 PM, Seattle, Weather by CustomWeather, © 2016

Note: Actual official high and low records may vary slightly from our data, if they occured in-between our weather recording intervals... More about our weather records


Seattle Weather History for the Previous 24 Hours

Scroll right to see more
Time TempWeatherWind HumidityBarometerVisibility
10:53 PM
Mon, Oct 24
52 °FClear.No wind97%29.76 "Hg10 mi
9:53 PM53 °FClear.No wind93%29.75 "Hg10 mi
8:53 PM55 °FOvercast.5 mph87%29.73 "Hg10 mi
7:53 PM54 °FOvercast.7 mph93%29.72 "Hg10 mi
6:53 PM54 °FLight rain. Overcast.10 mph97%29.72 "Hg9 mi
5:53 PM55 °FLight rain. Mostly cloudy.10 mph93%29.71 "Hg10 mi
4:53 PM56 °FLight rain. Overcast.6 mph81%29.70 "Hg10 mi
3:53 PM56 °FOvercast.8 mph77%29.70 "Hg10 mi
2:53 PM59 °FOvercast.12 mph69%29.66 "Hg10 mi
1:53 PM60 °FOvercast.7 mph69%29.65 "Hg10 mi
12:53 PM60 °FOvercast.7 mph67%29.65 "Hg10 mi
11:53 AM59 °FPartly sunny.5 mph67%29.61 "Hg10 mi
10:53 AM57 °FOvercast.No wind78%29.58 "Hg10 mi
9:53 AM55 °FOvercast.5 mph80%29.56 "Hg10 mi
8:53 AM55 °FPartly sunny.5 mph83%29.57 "Hg10 mi
7:53 AM54 °FPartly sunny.No wind86%29.56 "Hg10 mi
6:53 AM54 °FPassing clouds.5 mph83%29.57 "Hg10 mi
5:53 AM54 °FPassing clouds.8 mph90%29.60 "Hg10 mi
4:53 AM54 °FOvercast.No wind90%29.63 "Hg10 mi
3:53 AM53 °FMostly cloudy.3 mph89%29.66 "Hg10 mi
2:53 AM54 °FPassing clouds.3 mph86%29.69 "Hg10 mi
1:53 AM54 °FClear.No wind86%29.67 "Hg10 mi
12:53 AM54 °FClear.3 mph86%29.68 "Hg10 mi
11:53 PM
Sun, Oct 23
55 °FClear.No wind87%29.72 "Hg10 mi
Weather by CustomWeather, © 2016

See weather overviewHow to use our weather pages